Wind_Speed
42 44 45 46 47 48 49 51 52 53 54 55 55 56 57 57 57 58 57 57 57 56 54 53 54 54 53 52 51 49 49 49 48 47 46 45 44 43
43 43 44 46 47 48 49 50 52 53 53 54 55 55 56 58 59 60 59 59 59 58 57 55 54 54 54 54 53 52 51 49 49 48 47 47 46 45
42 43 43 45 47 48 49 50 51 52 52 53 54 55 56 56 58 59 60 60 60 60 60 58 58 58 58 58 57 55 54 52 51 51 49 48 48 47
43 43 44 44 46 48 49 50 51 52 53 54 54 55 56 56 57 58 60 61 62 63 63 61 59 59 60 60 60 58 56 55 54 53 53 52 51 51
43 44 44 45 45 47 48 50 51 52 53 54 55 55 56 57 57 58 58 60 61 62 64 64 62 61 61 61 61 60 60 58 58 57 56 55 53 52
44 45 46 46 47 47 48 49 50 52 53 55 56 57 58 59 59 59 59 60 61 61 63 63 63 62 61 61 61 61 61 60 59 59 58 57 55 54
45 45 47 47 48 49 49 50 50 52 53 54 55 56 57 59 60 61 61 60 61 61 61 62 62 63 63 62 61 62 62 61 61 61 60 59 57 55
45 46 46 47 48 49 49 50 51 52 53 54 55 56 56 58 59 60 61 61 61 61 62 62 62 63 63 63 63 63 63 62 62 62 60 60 59 58
44 45 46 47 48 49 49 50 51 52 53 54 54 55 56 57 57 58 58 60 61 61 62 61 62 62 63 64 64 64 64 64 63 62 61 60 59 58
44 46 47 47 49 49 50 50 51 51 52 53 53 54 54 55 56 57 58 59 59 60 61 61 61 62 62 63 64 64 63 63 63 63 62 61 59 58
44 45 46 47 48 48 49 49 49 50 51 52 52 53 54 55 56 56 57 58 57 57 59 60 60 60 60 60 60 61 62 63 63 63 62 60 59 59
44 45 46 46 47 47 48 48 48 48 49 50 51 53 53 54 54 54 55 56 56 55 56 58 58 60 59 57 58 60 61 62 62 63 62 61 60 60
44 44 45 45 45 46 46 47 46 47 48 49 50 51 52 52 52 53 54 54 54 54 54 55 55 57 57 56 56 57 58 58 59 59 60 61 61 61
43 44 44 45 45 45 46 46 46 46 46 47 47 48 49 49 50 51 52 52 52 51 52 53 53 53 54 54 54 54 55 56 56 57 58 59 59 59
44 44 44 44 44 45 45 45 45 44 44 45 45 45 46 46 47 48 49 49 49 49 50 50 50 50 50 50 50 51 52 52 54 54 55 56 56 56
43 43 43 43 44 44 43 43 43 43 42 42 41 41 42 43 44 45 45 46 46 47 47 47 47 48 47 47 48 48 49 50 51 52 53 53 54 54
42 42 42 42 43 42 42 42 41 41 40 40 39 39 40 40 41 42 42 42 43 44 44 46 46 46 46 46 46 46 46 46 47 49 50 50 52 52
42 42 42 42 42 42 41 41 40 39 39 39 38 38 38 38 38 39 39 39 40 40 41 42 43 43 44 44 43 43 44 44 45 47 48 48 49 50
42 42 42 42 42 41 40 39 38 38 38 37 37 36 36 36 36 36 36 36 36 36 36 37 39 40 40 39 39 42 42 42 42 44 45 46 47 48
43 42 42 42 40 39 38 37 36 36 35 34 34 34 33 33 33 33 32 32 32 32 32 33 35 36 37 37 37 38 39 39 40 41 42 43 45 45
43 42 41 40 38 37 36 35 34 33 33 32 32 32 31 30 29 29 28 28 28 28 28 29 31 33 34 35 35 36 37 37 37 37 38 40 42 43
42 40 39 38 37 35 34 34 34 33 33 32 31 31 30 29 27 26 26 26 26 26 26 27 29 31 32 32 33 34 34 34 34 34 35 36 38 40
40 39 38 37 36 35 34 34 33 33 32 31 31 30 29 27 26 26 26 25 25 25 25 26 27 28 29 30 31 32 33 33 33 33 33 34 35 37
Wind_Direction
274 273 271 270 268 268 267 266 265 263 262 261 261 261 261 260 260 259 259 258 258 258 257 258 257 255 254 255 256 257 257 257 257 257 258 259 260 261
275 274 273 272 271 269 269 268 267 266 264 263 262 260 260 259 259 259 259 259 258 258 258 259 257 256 255 255 256 257 257 256 256 257 257 257 259 259
277 276 276 275 273 272 271 270 269 268 267 265 263 262 260 259 258 259 258 259 258 257 258 258 258 258 256 256 256 257 257 256 256 257 257 257 258 258
279 279 278 278 276 274 272 271 270 269 267 265 264 263 262 262 260 259 258 258 257 257 257 257 258 258 258 256 256 257 256 256 256 256 257 257 257 257
281 279 279 279 278 276 274 272 270 269 268 267 265 265 264 263 262 261 260 259 257 257 257 256 256 257 258 257 256 256 255 255 255 255 256 256 256 256
282 281 280 280 279 277 276 275 273 272 270 269 267 266 265 264 263 263 262 261 260 259 258 257 256 256 256 256 256 256 255 255 255 254 254 254 254 255
284 283 282 281 281 280 278 277 275 274 272 270 269 268 267 265 263 263 262 261 260 260 258 257 256 256 255 255 255 255 255 254 253 252 252 253 253 254
286 286 285 283 282 281 280 279 277 276 274 272 271 269 268 267 265 264 262 261 261 259 258 258 256 256 255 255 255 254 253 252 251 251 252 252 252 252
289 288 286 285 284 282 281 280 279 277 275 273 272 271 270 268 267 265 263 262 262 260 259 258 257 256 256 255 254 254 253 252 250 250 250 250 250 250
292 291 289 288 286 285 283 282 280 278 276 275 273 272 270 268 267 266 264 263 262 260 260 258 257 257 257 255 254 253 252 251 249 249 249 249 248 249
296 294 293 291 289 287 286 284 282 280 278 276 274 272 271 270 269 267 265 264 262 260 260 259 257 257 255 255 254 253 252 250 249 248 247 247 247 247
299 297 296 294 292 290 289 288 286 283 280 278 276 275 274 272 270 269 267 266 263 262 261 261 258 256 254 253 254 252 251 250 248 247 247 246 245 246
301 299 298 296 295 293 292 290 288 286 283 280 278 276 275 273 271 270 269 268 266 264 262 261 259 257 255 252 251 251 251 249 248 247 246 245 245 245
302 300 299 297 296 295 294 292 290 288 286 284 281 279 276 274 272 271 269 268 266 265 262 261 259 257 255 252 250 249 250 248 247 247 245 244 243 244
303 301 300 299 298 297 295 294 292 290 288 287 284 282 279 276 274 272 270 268 267 265 264 262 259 257 254 251 248 247 248 247 246 245 244 242 242 242
305 303 302 301 300 299 297 296 294 293 292 290 288 285 283 280 277 274 271 269 267 266 264 261 258 255 253 251 248 247 247 246 245 245 242 241 240 240
306 305 304 303 302 300 300 298 296 295 294 293 291 289 286 284 281 277 274 270 269 267 264 261 258 255 252 250 249 248 247 246 245 243 241 240 238 237
307 306 305 304 303 302 301 300 298 296 295 295 293 292 290 287 283 280 276 273 271 268 264 261 257 254 252 250 248 247 246 245 244 242 239 238 236 234
308 307 307 306 304 302 302 301 299 298 297 296 296 294 292 290 287 283 279 276 272 268 264 260 255 252 249 248 248 247 245 243 242 240 238 236 234 234
309 308 308 307 305 304 303 302 301 301 300 298 298 297 295 293 290 285 281 277 273 269 264 258 253 249 247 246 245 244 242 241 240 238 235 233 232 232
310 309 309 308 307 306 305 305 304 304 302 301 300 299 299 296 293 288 283 280 275 269 262 257 252 249 247 246 244 241 240 239 238 235 233 231 230 230
310 310 309 309 308 306 306 306 306 306 305 303 302 302 300 297 293 290 287 283 278 270 263 258 253 249 247 245 242 239 237 236 233 230 229 227 226 226
311 311 310 310 308 307 307 306 306 306 305 303 303 303 301 298 294 291 288 285 280 273 265 258 253 249 246 243 239 236 232 230 229 228 227 224 223 222
Height
5631 5630 5630 5629 5629 5629 5629 5629 5630 5632 5636 5638 5639 5640 5640 5642 5645 5648 5651 5654 5656 5658 5661 5664 5667 5669 5672 5675 5678 5681 5683 5686 5689 5692 5694 5696 5699 5701
5620 5619 5618 5617 5617 5616 5616 5616 5616 5617 5620 5623 5624 5624 5625 5626 5629 5631 5634 5637 5640 5643 5646 5648 5651 5654 5657 5660 5663 5666 5669 5672 5675 5678 5681 5684 5686 5688
5608 5607 5606 5605 5604 5603 5603 5603 5603 5603 5604 5607 5608 5608 5609 5611 5613 5615 5618 5621 5623 5627 5629 5632 5635 5638 5641 5644 5647 5651 5654 5657 5660 5663 5666 5670 5673 5676
5597 5595 5594 5592 5591 5590 5589 5589 5588 5588 5589 5591 5592 5592 5593 5595 5596 5598 5601 5603 5606 5609 5612 5615 5618 5621 5624 5628 5631 5634 5638 5642 5645 5649 5652 5656 5659 5662
5585 5583 5581 5580 5578 5576 5575 5574 5574 5573 5573 5573 5575 5576 5577 5578 5579 5581 5583 5585 5588 5590 5593 5596 5600 5603 5606 5609 5613 5617 5621 5625 5629 5632 5636 5640 5644 5647
5572 5570 5568 5566 5565 5563 5561 5560 5558 5557 5556 5556 5557 5558 5559 5560 5561 5563 5565 5567 5569 5572 5574 5577 5580 5584 5587 5591 5595 5599 5603 5606 5611 5615 5619 5624 5628 5632
5559 5557 5555 5553 5551 5549 5547 5545 5543 5541 5540 5540 5540 5540 5541 5541 5543 5544 5546 5548 5550 5552 5555 5558 5561 5565 5568 5571 5575 5579 5584 5588 5592 5597 5602 5607 5611 5616
5546 5544 5541 5539 5536 5534 5532 5529 5527 5525 5523 5523 5522 5522 5523 5523 5523 5524 5526 5529 5533 5535 5535 5539 5541 5544 5548 5552 5556 5560 5564 5568 5573 5578 5583 5588 5594 5599
5534 5531 5528 5524 5522 5519 5517 5514 5511 5508 5506 5505 5505 5504 5504 5505 5505 5506 5507 5508 5511 5514 5515 5519 5521 5525 5528 5532 5535 5539 5544 5548 5553 5558 5564 5569 5575 5580
5521 5518 5514 5510 5507 5504 5502 5499 5495 5492 5490 5488 5488 5487 5486 5485 5486 5486 5487 5489 5492 5493 5494 5498 5501 5504 5507 5510 5514 5518 5522 5527 5533 5538 5544 5550 5556 5562
5508 5504 5501 5497 5493 5489 5486 5484 5480 5477 5474 5471 5470 5469 5468 5467 5466 5467 5468 5469 5472 5474 5474 5476 5480 5483 5486 5489 5492 5496 5501 5506 5512 5518 5524 5530 5536 5543
5496 5491 5487 5483 5479 5474 5471 5468 5465 5462 5459 5456 5454 5452 5450 5449 5448 5448 5448 5449 5451 5454 5455 5456 5459 5461 5466 5471 5472 5476 5480 5486 5492 5498 5504 5511 5517 5524
5484 5479 5474 5469 5465 5461 5457 5453 5450 5447 5444 5441 5438 5436 5434 5432 5431 5430 5430 5431 5432 5435 5436 5437 5439 5441 5445 5451 5454 5457 5461 5466 5472 5478 5484 5491 5498 5505
5472 5467 5461 5457 5452 5448 5443 5439 5435 5432 5429 5425 5422 5420 5417 5415 5414 5413 5413 5413 5414 5416 5417 5418 5420 5423 5426 5431 5436 5439 5443 5448 5453 5459 5465 5472 5479 5486
5460 5454 5449 5444 5439 5434 5430 5425 5421 5418 5414 5411 5407 5404 5401 5399 5398 5397 5396 5396 5397 5397 5399 5400 5402 5405 5408 5413 5418 5422 5426 5430 5435 5441 5446 5453 5460 5468
5448 5442 5437 5432 5427 5422 5417 5412 5408 5404 5400 5397 5393 5390 5387 5384 5382 5381 5380 5380 5381 5381 5381 5383 5385 5388 5392 5396 5401 5406 5410 5414 5419 5424 5430 5436 5443 5451
5437 5431 5426 5420 5415 5409 5404 5400 5395 5391 5387 5384 5380 5376 5373 5371 5368 5366 5365 5365 5365 5366 5366 5367 5369 5372 5376 5381 5386 5390 5394 5399 5403 5408 5413 5420 5428 5435
5426 5420 5414 5409 5403 5398 5393 5388 5383 5379 5375 5371 5367 5364 5361 5358 5355 5353 5351 5351 5351 5351 5351 5352 5354 5357 5361 5366 5372 5376 5379 5384 5388 5393 5399 5405 5413 5421
5414 5408 5403 5397 5391 5386 5381 5376 5372 5367 5363 5359 5355 5352 5348 5345 5343 5340 5339 5337 5337 5337 5338 5339 5340 5344 5348 5354 5359 5362 5366 5370 5375 5380 5385 5392 5400 5407
5403 5397 5391 5385 5380 5374 5370 5365 5361 5356 5352 5348 5344 5340 5337 5334 5331 5329 5327 5326 5325 5325 5326 5327 5329 5332 5337 5342 5346 5350 5353 5357 5362 5367 5373 5379 5386 5394
5392 5385 5380 5374 5368 5364 5359 5355 5350 5346 5342 5338 5334 5330 5327 5324 5321 5318 5317 5315 5315 5315 5316 5318 5319 5322 5325 5329 5334 5339 5342 5346 5350 5356 5361 5367 5374 5381
5381 5375 5369 5363 5358 5354 5349 5345 5341 5336 5332 5328 5324 5321 5317 5314 5312 5310 5308 5307 5306 5306 5307 5308 5309 5312 5315 5319 5324 5328 5332 5336 5340 5345 5351 5358 5364 5372
5370 5364 5359 5354 5349 5344 5340 5335 5331 5327 5322 5319 5315 5311 5308 5305 5303 5301 5299 5298 5297 5297 5297 5299 5300 5303 5306 5309 5313 5318 5322 5327 5332 5337 5343 5349 5356 5363